sat.trackr.live / text

‹ back to catalog

JILIN-1 GAOFEN 2F

NORAD 49338 · 2021-097A

PAYLOAD ACTIVE UNKNOWN

§ Identity

Operator
Country
PRC
Launch date
2021-10-27
Launch site
JSC
Launch vehicle
Mass (kg)
RCS (m²)

External: N2YO · Heavens-Above · Gunter

§ Orbital elements

Epoch: 2026-09-13T03:38:42.235872Z

Period
95.47 min
Inclination
97.6813°
Eccentricity
0.0016969
Mean motion
15.08290438 rev/d
Perigee alt
529.7 km
Apogee alt
553.2 km
Semi-major
6,919.6 km
B*
1.8134e-4
RAAN
22.2180°
Arg perigee
288.8004°
Mean anomaly
71.1383°
Rev number
26,957

§ Raw data

JILIN-1 GAOFEN 2F1 49338U 21097A   26256.15187773  .00002755  00000+0  18134-3 0  99942 49338  97.6813  22.2180 0016969 288.8004  71.1383 15.08290438269571

JSON: /api/v1/satellites/49338 · /tle

For live sub-satellite position, see the globe view (requires WebGL).

§ Visibility from observer

Set your observer location to see the next 7 days of passes ≥ 10°. The values pass through the URL so the page stays shareable.

No JS? Fill the form by hand. The geolocation button needs JavaScript.

§ Radio — SatNOGS DB

ModeDescriptionDownlinkUplink
BPSK S-band telemetry 2.228 GHz

1 transmitter · refreshed weekly from db.satnogs.org